MDT,Max TemperatureF,Mean TemperatureF,Min TemperatureF,Max Dew PointF,MeanDew PointF,Min DewpointF,Max Humidity, Mean Humidity, Min Humidity, Max Sea Level PressureIn, Mean Sea Level PressureIn, Min Sea Level PressureIn, Max VisibilityMiles, Mean VisibilityMiles, Min VisibilityMiles, Max Wind SpeedMPH, Mean Wind SpeedMPH, Max Gust SpeedMPH,PrecipitationIn, CloudCover, Events, WindDirDegrees
2013-4-1,66,50,33,28,18,8,61,37,13,30.01,29.90,29.80,10,10,10,24,7,31,0.00,2,,211
2013-4-2,56,40,24,29,18,9,78,49,19,30.01,29.92,29.83,10,10,10,25,6,35,T,2,,304
2013-4-3,64,43,21,26,18,7,84,48,12,30.14,30.06,29.96,10,10,10,21,6,28,0.00,0,,341
2013-4-4,67,45,22,17,14,8,57,36,14,30.22,30.12,30.04,10,10,10,17,5,32,0.00,0,,293
2013-4-5,68,51,34,22,19,15,47,31,15,30.06,29.93,29.81,10,10,10,24,7,39,0.00,2,,298
2013-4-6,66,50,33,26,20,13,61,37,13,29.94,29.84,29.78,10,10,10,28,9,44,0.00,1,,287
2013-4-7,65,48,30,25,18,13,59,37,15,29.87,29.76,29.68,10,10,10,25,9,36,0.00,2,,290
2013-4-8,65,48,31,32,22,10,96,56,15,29.68,29.51,29.24,10,8,2,41,14,53,T,5,Snow,210
2013-4-9,35,32,28,34,31,26,100,93,85,29.88,29.58,29.38,10,4,0,20,6,25,0.67,8,Fog-Rain-Snow,209
2013-4-10,37,31,24,28,24,19,92,78,64,30.05,29.94,29.83,10,10,10,10,4,13,0.00,7,,208
2013-4-11,55,38,21,36,27,18,85,66,46,30.05,29.94,29.82,10,10,10,28,7,33,0.00,1,,308
2013-4-12,62,44,25,30,23,18,88,55,21,29.96,29.90,29.81,10,10,10,20,6,26,0.00,1,,272
2013-4-13,64,45,25,26,21,16,81,49,16,29.91,29.74,29.46,10,10,10,29,10,41,0.00,1,,265
2013-4-14,60,52,43,31,25,20,58,40,21,29.73,29.55,29.45,10,10,10,29,13,39,0.00,6,,284
2013-4-15,65,51,37,29,23,14,60,37,13,29.71,29.57,29.47,10,9,6,31,12,40,0.00,6,,219
2013-4-16,68,53,38,27,18,8,54,33,11,29.74,29.60,29.46,10,7,3,37,15,48,0.00,7,,221
2013-4-17,48,37,25,25,17,9,54,38,21,29.95,29.70,29.58,10,10,9,33,15,41,T,4,Rain,248
2013-4-18,43,33,22,7,-1,-5,39,26,13,30.25,30.08,29.92,10,10,10,28,15,39,0.00,0,,325
2013-4-19,57,35,12,13,5,-2,58,37,15,30.38,30.20,29.98,10,10,10,28,9,36,0.00,1,,268
2013-4-20,58,44,30,24,21,14,59,42,24,30.03,29.94,29.85,10,10,10,28,9,36,0.00,2,,285
2013-4-21,64,43,21,24,16,7,81,46,11,30.16,30.05,29.97,10,10,10,26,8,36,0.00,1,,273
2013-4-22,70,50,30,22,18,15,56,34,12,29.96,29.83,29.67,10,10,10,37,11,47,0.00,1,,294
2013-4-23,54,39,23,22,7,-9,48,30,11,30.11,29.85,29.65,10,10,10,36,13,47,0.00,1,,262
2013-4-24,62,40,18,12,3,-5,41,26,10,30.18,30.10,30.03,10,10,10,20,5,36,0.00,0,,316
2013-4-25,68,49,29,33,19,12,62,39,15,30.08,29.97,29.82,10,10,10,28,6,37,T,3,,79
2013-4-26,63,47,31,32,26,19,78,49,20,30.21,30.11,29.94,10,10,10,32,7,43,T,2,Rain-Thunderstorm,314
2013-4-27,71,49,26,22,16,9,69,40,10,30.27,30.14,30.01,10,10,10,20,5,29,0.00,0,,208
2013-4-28,74,51,27,18,15,13,50,31,11,30.07,29.95,29.83,10,10,10,22,6,33,0.00,0,,260
2013-4-29,78,55,31,25,18,11,52,31,10,29.90,29.77,29.66,10,10,10,28,8,37,0.00,0,,285
2013-4-30,79,56,33,26,16,9,51,30,8,29.75,29.66,29.60,10,10,10,31,12,40,0.00,0,,249